| time (UTC) | temp F | wind direction | speed MPH | gust MPH | rain 1hr in | rain 24hr in | rain mn in | humidity % | barometer mb |
| 20260903143028 | 74 | 116 | 3.0 | 8.0 | 0.00 | 0.12 | 0.12 | 80 | 1008.2 |
| 20260903141528 | 72 | 75 | 0.0 | 2.0 | 0.00 | 0.12 | 0.12 | 83 | 1008.0 |
| 20260903140035 | 72 | 40 | 0.0 | 4.0 | 0.01 | 0.12 | 0.12 | 84 | 1008.4 |
| 20260903134520 | 71 | 130 | 0.0 | 3.0 | 0.01 | 0.12 | 0.12 | 86 | 1008.8 |
| 20260903133021 | 71 | 232 | 0.0 | 8.0 | 0.01 | 0.12 | 0.12 | 86 | 1009.3 |
| 20260903131524 | 72 | 182 | 0.0 | 3.0 | 0.01 | 0.12 | 0.12 | 84 | 1009.3 |
| 20260903130017 | 72 | 279 | 0.0 | 6.0 | 0.00 | 0.11 | 0.11 | 84 | 1009.8 |
| 20260903124516 | 72 | 249 | 2.0 | 9.0 | 0.00 | 0.11 | 0.11 | 85 | 1009.2 |
| 20260903123020 | 73 | 207 | 1.0 | 12.0 | 0.00 | 0.11 | 0.11 | 83 | 1009.7 |
| 20260903121513 | 72 | 245 | 5.0 | 12.0 | 0.00 | 0.11 | 0.11 | 86 | 1009.2 |
| 20260903120012 | 71 | 271 | 6.0 | 13.0 | 0.01 | 0.11 | 0.11 | 88 | 1008.8 |
| 20260903114511 | 71 | 256 | 3.0 | 12.0 | 0.05 | 0.11 | 0.11 | 88 | 1008.8 |
| 20260903113011 | 71 | 232 | 1.0 | 9.0 | 0.11 | 0.11 | 0.11 | 88 | 1008.7 |
| 20260903111540 | 71 | 236 | 2.0 | 6.0 | 0.11 | 0.11 | 0.11 | 88 | 1008.5 |
| 20260903110040 | 72 | 265 | 1.0 | 7.0 | 0.10 | 0.10 | 0.10 | 85 | 1009.1 |
| 20260903104537 | 73 | 355 | 5.0 | 12.0 | 0.06 | 0.06 | 0.06 | 89 | 1008.8 |
| 20260903103037 | 71 | 283 | 0.0 | 0.0 | 0.00 | 0.00 | 0.00 | 92 | 1009.5 |
| 20260903101537 | 70 | 50 | 0.0 | 0.0 | 0.00 | 0.00 | 0.00 | 92 | 1009.0 |
| 20260903100036 | 69 | 256 | 0.0 | 0.0 | 0.00 | 0.00 | 0.00 | 93 | 1008.9 |
| 20260903094534 | 69 | 244 | 0.0 | 0.0 | 0.00 | 0.00 | 0.00 | 93 | 1008.5 |
| 20260903093032 | 69 | 240 | 0.0 | 0.0 | 0.00 | 0.00 | 0.00 | 93 | 1008.1 |
| 20260903091531 | 69 | 219 | 0.0 | 0.0 | 0.00 | 0.00 | 0.00 | 92 | 1007.8 |
| 20260903090030 | 68 | 219 | 0.0 | 0.0 | 0.00 | 0.01 | 0.00 | 93 | 1008.0 |
| 20260903084538 | 68 | 216 | 0.0 | 0.0 | 0.00 | 0.01 | 0.00 | 93 | 1008.0 |
| 20260903083022 | 68 | 236 | 0.0 | 0.0 | 0.00 | 0.01 | 0.00 | 93 | 1008.1 |
| 20260903081520 | 68 | 236 | 0.0 | 0.0 | 0.00 | 0.01 | 0.00 | 93 | 1008.0 |
| 20260903080018 | 69 | 229 | 0.0 | 0.0 | 0.00 | 0.12 | 0.00 | 92 | 1008.0 |
| 20260903074518 | 69 | 219 | 0.0 | 0.0 | 0.00 | 0.12 | 0.00 | 92 | 1008.3 |
| 20260903073016 | 69 | 219 | 0.0 | 0.0 | 0.00 | 0.12 | 0.00 | 94 | 1008.3 |
| 20260903071515 | 69 | 211 | 0.0 | 0.0 | 0.00 | 0.12 | 0.00 | 92 | 1008.2 |
| 20260903070015 | 69 | 211 | 0.0 | 0.0 | 0.00 | 0.54 | 0.00 | 92 | 1008.3 |
| 20260903064513 | 69 | 222 | 0.0 | 0.0 | 0.00 | 0.54 | 0.00 | 92 | 1008.5 |
| 20260903063010 | 69 | 222 | 0.0 | 0.0 | 0.00 | 0.54 | 0.00 | 92 | 1008.5 |
| 20260903061507 | 70 | 222 | 0.0 | 0.0 | 0.00 | 0.54 | 0.00 | 93 | 1008.6 |
| 20260903060006 | 69 | 222 | 0.0 | 0.0 | 0.00 | 0.54 | 0.00 | 92 | 1008.6 |
| 20260903054506 | 69 | 227 | 0.0 | 0.0 | 0.00 | 0.54 | 0.00 | 91 | 1008.7 |
| 20260903053002 | 70 | 227 | 0.0 | 0.0 | 0.00 | 0.54 | 0.00 | 91 | 1008.7 |
| 20260903051503 | 70 | 227 | 0.0 | 0.0 | 0.00 | 0.54 | 0.00 | 92 | 1008.8 |
| 20260903050106 | 70 | 227 | 0.0 | 0.0 | 0.00 | 0.54 | 0.00 | 91 | 1008.7 |
| 20260903044603 | 70 | 228 | 0.0 | 0.0 | 0.00 | 0.54 | 0.00 | 91 | 1008.6 |
| 20260903043109 | 70 | 228 | 0.0 | 0.0 | 0.00 | 0.54 | 0.00 | 91 | 1008.7 |
| 20260903041556 | 70 | 228 | 0.0 | 0.0 | 0.00 | 0.54 | 0.00 | 90 | 1008.8 |
| 20260903040055 | 71 | 248 | 0.0 | 0.0 | 0.00 | 0.54 | 0.00 | 90 | 1008.8 |
| 20260903034556 | 71 | 250 | 0.0 | 0.0 | 0.00 | 0.54 | 0.00 | 90 | 1008.8 |
| 20260903033048 | 72 | 252 | 0.0 | 0.0 | 0.00 | 0.54 | 0.00 | 90 | 1008.9 |
| 20260903031553 | 72 | 220 | 0.0 | 0.0 | 0.00 | 0.54 | 0.00 | 89 | 1008.9 |
| 20260903030047 | 72 | 175 | 0.0 | 0.0 | 0.00 | 0.54 | 0.00 | 89 | 1009.0 |
| 20260903024543 | 73 | 227 | 0.0 | 0.0 | 0.00 | 0.54 | 0.00 | 88 | 1008.9 |
| 20260903023039 | 73 | 248 | 0.0 | 0.0 | 0.00 | 0.54 | 0.00 | 87 | 1009.0 |
| 20260903021548 | 74 | 215 | 0.0 | 0.0 | 0.00 | 0.54 | 0.00 | 87 | 1008.7 |
| 20260903020035 | 74 | 215 | 0.0 | 0.0 | 0.00 | 0.54 | 0.00 | 85 | 1008.6 |
| 20260903014533 | 75 | 215 | 0.0 | 0.0 | 0.00 | 0.54 | 0.00 | 84 | 1008.5 |
| 20260903013100 | 76 | 215 | 0.0 | 0.0 | 0.00 | 0.54 | 0.00 | 82 | 1008.3 |
| 20260903011602 | 76 | 215 | 0.0 | 0.0 | 0.00 | 0.54 | 0.00 | 81 | 1008.3 |
| 20260903010025 | 77 | 215 | 0.0 | 0.0 | 0.00 | 0.54 | 0.00 | 78 | 1008.2 |
| 20260903004524 | 79 | 215 | 0.0 | 0.0 | 0.00 | 0.54 | 0.00 | 74 | 1008.1 |
| 20260903003051 | 82 | 160 | 0.0 | 1.0 | 0.00 | 0.54 | 0.00 | 68 | 1008.2 |
| 20260903001551 | 83 | 163 | 0.0 | 0.0 | 0.00 | 0.54 | 0.00 | 66 | 1008.1 |
| 20260903000049 | 84 | 169 | 0.0 | 0.0 | 0.00 | 0.54 | 0.00 | 63 | 1008.1 |
| 20260902234547 | 85 | 188 | 0.0 | 5.0 | 0.00 | 0.54 | 0.00 | 61 | 1008.1 |
| 20260902233046 | 87 | 121 | 0.0 | 4.0 | 0.00 | 0.54 | 0.00 | 59 | 1008.0 |
| 20260902231545 | 87 | 118 | 1.0 | 7.0 | 0.00 | 0.54 | 0.00 | 58 | 1008.1 |
| 20260902230019 | 88 | 109 | 0.0 | 4.0 | 0.00 | 0.54 | 0.00 | 57 | 1008.2 |
| 20260902224516 | 89 | 81 | 0.0 | 4.0 | 0.00 | 0.54 | 0.00 | 55 | 1008.2 |
| 20260902223044 | 88 | 113 | 3.0 | 8.0 | 0.00 | 0.54 | 0.00 | 56 | 1008.1 |
| 20260902221544 | 89 | 122 | 1.0 | 7.0 | 0.00 | 0.54 | 0.00 | 56 | 1008.2 |
| 20260902220045 | 89 | 117 | 2.0 | 7.0 | 0.00 | 0.54 | 0.00 | 56 | 1008.3 |
| 20260902214539 | 89 | 90 | 1.0 | 7.0 | 0.00 | 0.54 | 0.00 | 56 | 1008.3 |
| 20260902213037 | 89 | 97 | 3.0 | 8.0 | 0.00 | 0.54 | 0.00 | 55 | 1008.4 |
| 20260902211543 | 89 | 109 | 5.0 | 10.0 | 0.00 | 0.54 | 0.00 | 54 | 1008.4 |
| 20260902210105 | 90 | 71 | 2.0 | 7.0 | 0.00 | 0.54 | 0.00 | 52 | 1008.5 |
| 20260902204539 | 89 | 119 | 0.0 | 9.0 | 0.00 | 0.54 | 0.00 | 54 | 1008.6 |
| 20260902203033 | 89 | 66 | 3.0 | 9.0 | 0.00 | 0.54 | 0.00 | 55 | 1008.6 |
| 20260902201534 | 89 | 126 | 1.0 | 9.0 | 0.00 | 0.54 | 0.00 | 54 | 1008.7 |
| 20260902200025 | 87 | 5 | 1.0 | 5.0 | 0.00 | 0.54 | 0.00 | 58 | 1008.8 |
| 20260902194525 | 87 | 291 | 0.0 | 5.0 | 0.00 | 0.54 | 0.00 | 59 | 1009.0 |
| 20260902193020 | 88 | 49 | 0.0 | 8.0 | 0.00 | 0.54 | 0.00 | 55 | 1009.2 |
| 20260902191518 | 89 | 126 | 3.0 | 9.0 | 0.00 | 0.54 | 0.00 | 55 | 1009.2 |
| 20260902190014 | 87 | 84 | 0.0 | 7.0 | 0.00 | 0.54 | 0.00 | 57 | 1009.2 |
| 20260902184512 | 87 | 121 | 5.0 | 9.0 | 0.00 | 0.54 | 0.00 | 57 | 1009.3 |
| 20260902183008 | 86 | 182 | 0.0 | 4.0 | 0.00 | 0.54 | 0.00 | 56 | 1009.7 |
| 20260902181504 | 88 | 53 | 0.0 | 2.0 | 0.00 | 0.54 | 0.00 | 56 | 1009.9 |
| 20260902180116 | 87 | 119 | 2.0 | 8.0 | 0.00 | 0.54 | 0.00 | 56 | 1010.0 |
| 20260902174559 | 85 | 125 | 0.0 | 2.0 | 0.00 | 0.54 | 0.00 | 59 | 1010.2 |
| 20260902173051 | 86 | 110 | 0.0 | 3.0 | 0.00 | 0.54 | 0.00 | 59 | 1010.4 |
| 20260902171547 | 84 | 71 | 0.0 | 5.0 | 0.00 | 0.54 | 0.00 | 64 | 1010.5 |
| 20260902170042 | 82 | 49 | 0.0 | 4.0 | 0.00 | 0.54 | 0.00 | 65 | 1010.3 |
| 20260902164535 | 80 | 86 | 0.0 | 4.0 | 0.00 | 0.54 | 0.00 | 68 | 1010.5 |
| 20260902163032 | 80 | 138 | 1.0 | 7.0 | 0.00 | 0.54 | 0.00 | 68 | 1010.6 |
| 20260902161527 | 79 | 132 | 2.0 | 9.0 | 0.00 | 0.54 | 0.00 | 70 | 1010.4 |
| 20260902160021 | 80 | 122 | 1.0 | 6.0 | 0.00 | 0.54 | 0.54 | 69 | 1010.4 |
| 20260902154552 | 78 | 116 | 0.0 | 9.0 | 0.00 | 0.54 | 0.54 | 71 | 1010.5 |
| 20260902153051 | 77 | 185 | 0.0 | 6.0 | 0.00 | 0.54 | 0.54 | 73 | 1010.5 |
| 20260902151550 | 76 | 150 | 1.0 | 7.0 | 0.00 | 0.54 | 0.54 | 75 | 1010.4 |
| 20260902150047 | 73 | 212 | 0.0 | 5.0 | 0.00 | 0.54 | 0.54 | 80 | 1010.2 |
| 20260902144559 | 72 | 173 | 1.0 | 7.0 | 0.00 | 0.54 | 0.54 | 80 | 1010.4 |